This demonstration page uses our WeatherBlox Daily Observations layout. Learn more.

Left ArrowRight Arrow

Hourly Observations for November 17, 2022

Temp ( °F °C ) Dew Point ( °F °C ) Humidity (%) Winds ( mph kmh ) Pressure ( in mb ) Visibility ( mi km ) Precip ( " mm )
12:51 am 00:51 Clear 37 2.8 26 -3.3 64 64 WSW 6 9 29.91 1013 10 16 0.00 0.00
1:51 am 01:51 Clear 36 2.2 26 -3.3 67 67 WSW 5 7 29.90 1013 10 16 0.00 0.00
2:51 am 02:51 Partly Cloudy 36 2.2 26 -3.3 67 67 W 9 15 29.89 1012 10 16 0.00 0.00
3:51 am 03:51 Cloudy 37 2.8 26 -3.3 64 64 WSW 7 11 29.89 1012 10 16 0.00 0.00
4:51 am 04:51 Cloudy 36 2.2 26 -3.3 67 67 WSW 9 15 29.89 1012 10 16 0.00 0.00
5:51 am 05:51 Cloudy 37 2.8 26 -3.3 64 64 WSW 7 11 29.89 1012 10 16 0.00 0.00
6:51 am 06:51 Cloudy 37 2.8 26 -3.3 64 64 WSW 8 13 29.90 1013 10 16 0.00 0.00
7:51 am 07:51 Cloudy 37 2.8 26 -3.3 64 64 WSW 7 11 29.91 1013 10 16 0.00 0.00
8:51 am 08:51 Mostly Cloudy 39 3.9 26 -3.3 59 59 W 10 17 29.91 1013 10 16 0.00 0.00
9:51 am 09:51 Mostly Cloudy 39 3.9 26 -3.3 59 59 WNW 12 19 29.92 1013 10 16 0.00 0.00
10:51 am 10:51 Partly Cloudy 43 6.1 26 -3.3 51 51 W 14 22 29.92 1013 10 16 0.00 0.00
11:51 am 11:51 Mostly Sunny 44 6.7 25 -3.9 47 47 W 15 24 29.91 1013 10 16 0.00 0.00
12:51 pm 12:51 Mostly Sunny 46 7.8 25 -3.9 43 43 WNW 10 17 29.90 1013 10 16 0.00 0.00
1:51 pm 13:51 Partly Cloudy 46 7.8 25 -3.9 43 43 W 16 26 29.91 1013 10 16 0.00 0.00
2:51 pm 14:51 Partly Cloudy 44 6.7 23 -5 43 43 W 17 28 29.93 1014 10 16 0.00 0.00
3:51 pm 15:51 Cloudy 43 6.1 22 -5.6 43 43 WNW 14 22 29.96 1015 10 16 0.00 0.00
4:51 pm 16:51 Mostly Cloudy 43 6.1 22 -5.6 43 43 W 10 17 29.96 1015 10 16 0.00 0.00
5:51 pm 17:51 Cloudy 40 4.4 22 -5.6 48 48 W 9 15 30.00 1016 10 16 0.00 0.00
6:51 pm 18:51 Partly Cloudy 40 4.4 23 -5 50 50 WNW 9 15 30.01 1016 10 16 0.00 0.00
7:51 pm 19:51 Mostly Cloudy 39 3.9 23 -5 52 52 NW 6 9 30.03 1017 10 16 0.00 0.00
8:51 pm 20:51 Partly Cloudy 38 3.3 24 -4.4 57 57 W 3 6 30.04 1017 10 16 0.00 0.00
9:51 pm 21:51 Mostly Clear 37 2.8 23 -5 56 56 SW 7 11 30.06 1018 10 16 0.00 0.00
10:51 pm 22:51 Clear 36 2.2 23 -5 59 59 SW 9 15 30.08 1019 10 16 0.00 0.00
11:51 pm 23:51 Clear 35 1.7 22 -5.6 58 58 WSW 7 11 30.07 1018 10 16 0.00 0.00

Powered by AerisWeather